638  
ASUS44 KLCH 231410  
RWRLCH  
REGIONAL WEATHER ROUNDUP  
NATIONAL WEATHER SERVICE LAKE CHARLES LA  
900 AM CDT SAT SEP 23 2017  
 
NOTE: "FAIR" INDICATES FEW OR NO CLOUDS BELOW 12,000 FEET WITH NO  
SIGNIFICANT WEATHER AND/OR S TO VISIBILITY
.  
 
ACROSS SOUTHEAST TEXAS  
 
CITY SKY/WX TMP DP RH WIND PRES REMARKS
 
BEAUMONT NOT AVBL  
BEAUMONT CITY FAIR 79 74 84 NE3 29.94S  
ORANGE SUNNY 77 76 98 NE3 29.96R  
JASPER SUNNY 74 74 100 CALM 29.97S  

 
 
ACROSS CENTRAL LOUISIANA  
 
CITY SKY/WX TMP DP RH WIND PRES REMARKS
 
LEESVILLE SUNNY 79 73 81 CALM 29.95R  
FULLERTON FAIR 80 74 81 CALM 29.94R  
ALEXANDRIA INT SUNNY 79 72 78 E3 29.95R  
ESLER FIELD NOT AVBL  
DERIDDER FAIR 76 75 95 CALM 29.97S FOG  
OAKDALE SUNNY 78 73 87 CALM 29.96S  
OPELOUSAS FAIR 78 74 87 CALM 29.96S  

 
 
ACROSS SOUTHWEST AND SOUTH CENTRAL LOUISIANA  
 
CITY SKY/WX TMP DP RH WIND PRES REMARKS
 
SULPHUR SUNNY 80 76 86 CALM 29.95S FOG  
LAKE CHARLES SUNNY 79 73 83 NE6 29.94S  
CHENNAULT INT NOT AVBL  
CAMERON PHI N/A 81 77 89 NE7 29.93R  
DEQUINCY FAIR 77 72 85 CALM 29.95S  
JENNINGS FAIR 78 75 90 NE5 29.95S  
LAFAYETTE NOT AVBL  
NEW IBERIA SUNNY 81 72 74 CALM 29.96R  
ABBEVILLE N/A 79 77 94 NE3 29.95S  
PATTERSON NOT AVBL  
SALT POINT N/A 79 74 84 VRB3 29.93S  

 
 
SELECTED SITES ACROSS THE REGION  
 
CITY SKY/WX TMP DP RH WIND PRES REMARKS
 
HOUSTON BUSH MOSUNNY 78 75 90 NE5 29.93S  
HOUSTON HOBBY NOT AVBL  
GALVESTON NOT AVBL  
COLLEGE STAT NOT AVBL  
CONROE NOT AVBL  
HUNTSVILLE NOT AVBL  
LUFKIN NOT AVBL  
SHREVEPORT NOT AVBL  
MONROE SUNNY 79 72 79 E6 29.99R  
NATCHEZ MS SUNNY 79 73 82 VRB3 29.99R  
BATON ROUGE SUNNY 78 73 84 NE5 29.96S  
N.O. INTL ARPT PTSUNNY 79 76 90 NE9 29.96R  
SLIDELL NOT AVBL  

 
 
MARINE REPORTS  
 
STATION/POSITION TIME SKY/WX TEMP WIND PRES VSBY
 
AIR SEA DIR/SP/G  
(UTC) (F) (DEG/KT/KT) (MB) (MI)  
BUOY 30 S HIGH I 1250 82 82 110/ 10/ 10 1012.9  
WVE H/P(F/S)= 2/ 6  
 
SEA RIM ST PARK 1300 77 70/ 4/ 4 1013.9R  
PORT ARTHUR 1348 79 82 30/ 5/ 6 1014.0R  
SABINE PASS N 1342 81 84 60/ 5/ 6 1015.1R  
TEXAS POINT NOT AVBL  
CALCASIEU PASS 1348 80 85 60/ 6/ 7 1012.7R  
LK CHARLES BEACH 1348 79 81 1013.5R  
MARSH ISLAND 1300 81 N/A  
FRESH WATER LOCK 1348 80 87 60/ 6/ 9 1013.8R  
AMERADA PASS 1348 77 83 40/ 5/ 7 1013.9R  

 
 
 
CLICK HERE TO GO TO PREVIOUS BULLETINS.

The Nexlab LA Page
The Nexlab TX Page Main Text Page